period_start,C,m1,H,J0,J1,J2,J3,J4,J5,JA,JB,JC,JD,JJ,JK,JN,#
2017-11-17 00:03:56,0.15,0.00,0.00,18.09,21.26,24.32,14.27,47.52,1019.55,2055.95,3539.53,3133.98,3598.08,600.40,608.24,0.01,0000 0000 0000 0000 000000
2017-11-17 00:08:57,0.15,0.00,0.00,18.11,21.27,24.32,14.18,47.93,1019.55,2055.92,3534.14,3131.83,3595.56,599.95,607.77,0.06,0000 0000 0000 0000 000000
2017-11-17 00:13:58,0.15,0.01,0.00,18.12,21.27,24.34,14.23,48.00,1019.55,2055.58,3530.54,3130.13,3592.96,600.18,607.75,0.11,0000 0000 0000 0000 000000
2017-11-17 00:18:59,0.14,0.01,0.00,18.14,21.29,24.35,14.21,48.06,1019.55,2055.42,3527.39,3128.62,3590.56,599.70,607.48,0.16,0000 0000 0000 0000 000000
2017-11-17 00:24:00,0.12,0.02,0.00,18.12,21.30,24.35,14.23,48.10,1019.55,2055.17,3524.15,3126.95,3588.09,599.89,607.67,0.21,0000 0000 0000 0000 000000
2017-11-17 00:29:02,0.12,0.02,0.00,18.16,21.32,24.33,14.24,47.99,1019.55,2055.07,3521.12,3125.42,3585.74,599.87,607.42,0.26,0000 0000 0000 0000 000000
2017-11-17 00:34:03,0.08,0.03,0.00,18.20,21.33,24.35,14.22,48.02,1019.55,2055.02,3518.97,3124.39,3583.95,600.15,607.74,0.31,0000 0000 0000 0000 000000
2017-11-17 00:39:04,0.10,0.03,0.00,18.22,21.34,24.38,14.11,47.94,1019.56,2055.02,3516.58,3123.14,3582.15,600.00,607.52,0.36,0000 0000 0000 0000 000000
2017-11-17 00:44:05,0.12,0.04,0.00,18.23,21.36,24.41,14.27,47.88,1019.56,2055.02,3513.63,3121.60,3579.78,600.31,608.06,0.41,0000 0000 0000 0000 000000
2017-11-17 00:49:06,0.12,0.04,0.00,18.24,21.37,24.40,14.30,47.89,1019.56,2055.01,3510.57,3120.03,3577.35,600.10,607.48,0.46,0000 0000 0000 0000 000000
2017-11-17 00:54:08,0.11,0.05,0.00,18.26,21.39,24.40,14.19,47.89,1019.58,2055.00,3507.64,3118.49,3575.01,599.94,607.47,0.51,0000 0000 0000 0000 000000
2017-11-17 00:59:09,0.07,0.05,0.00,18.27,21.40,24.41,14.14,47.87,1019.60,2055.00,3505.57,3117.29,3573.29,599.86,607.47,0.57,0000 0000 0000 0000 000000
2017-11-17 01:04:10,0.04,0.06,0.00,18.28,21.42,24.45,14.15,47.77,1019.66,2055.00,3504.14,3116.92,3572.00,599.82,607.35,0.62,0000 0000 0000 0000 000000
2017-11-17 01:09:11,0.12,0.06,0.00,18.29,21.43,24.47,14.21,47.81,1019.88,2055.00,3501.86,3115.67,3570.19,600.15,607.72,0.67,0000 0000 0000 0000 000000
2017-11-17 01:14:13,0.13,0.07,0.00,18.32,21.44,24.50,14.21,47.89,1019.95,2054.98,3498.39,3113.78,3567.45,599.69,607.34,0.72,0000 0000 0000 0000 000000
2017-11-17 01:19:14,0.09,0.07,0.00,18.31,21.47,24.48,14.23,47.88,1019.98,2054.98,3495.87,3112.46,3565.46,599.97,607.59,0.77,0000 0000 0000 0000 000000
2017-11-17 01:24:15,0.08,0.08,0.00,18.35,21.48,24.51,14.10,47.73,1020.03,2054.97,3493.85,3111.59,3563.84,599.78,607.33,0.82,0000 0000 0000 0000 000000
2017-11-17 01:29:16,0.08,0.08,0.00,18.35,21.49,24.51,14.12,47.76,1020.03,2054.96,3491.56,3110.32,3561.89,599.68,607.26,0.87,0000 0000 0000 0000 000000
2017-11-17 01:34:18,0.09,0.09,0.00,18.40,21.51,24.55,14.17,47.71,1020.03,2054.91,3489.25,3109.34,3560.04,599.70,607.10,0.92,0000 0000 0000 0000 000000
2017-11-17 01:39:19,0.08,0.09,0.00,18.38,21.52,24.55,14.21,47.75,1020.03,2054.61,3486.40,3107.70,3557.75,600.20,607.74,0.97,0000 0000 0000 0000 000000
2017-11-17 01:44:20,0.02,0.09,0.00,18.41,21.54,24.56,14.22,47.71,1020.03,2054.34,3484.53,3106.94,3556.30,600.17,607.62,1.02,0000 0000 0000 0000 000000
2017-11-17 01:49:22,0.05,0.10,0.00,18.44,21.56,24.57,14.20,47.74,1020.05,2054.12,3482.94,3106.11,3554.93,599.89,607.37,1.07,0000 0000 0000 0000 000000
2017-11-17 01:54:23,0.07,0.10,0.00,18.45,21.57,24.60,14.23,47.70,1020.07,2054.07,3481.00,3105.31,3553.48,600.11,607.57,1.12,0000 0000 0000 0000 000000
2017-11-17 01:59:25,0.05,0.10,0.00,18.44,21.59,24.60,14.24,47.71,1020.14,2054.04,3479.32,3104.66,3552.10,599.88,607.36,1.17,0000 0000 0000 0000 000000
2017-11-17 02:04:26,0.03,0.10,0.00,18.49,21.61,24.60,14.18,47.73,1020.22,2054.04,3478.04,3104.02,3551.10,600.01,607.41,1.22,0000 0000 0000 0000 000000
2017-11-17 02:09:27,0.04,0.11,0.00,18.48,21.62,24.62,14.18,47.77,1020.38,2054.00,3476.82,3103.75,3549.93,599.37,606.77,1.27,0000 0000 0000 0000 000000
2017-11-17 02:14:28,0.16,0.11,0.00,18.51,21.64,24.64,14.17,47.71,1020.39,2054.00,3473.84,3101.99,3547.54,600.02,607.35,1.32,0000 0000 0000 0000 000000
2017-11-17 02:19:29,0.09,0.12,0.00,18.50,21.66,24.67,14.23,47.63,1020.48,2054.00,3470.88,3100.31,3545.11,600.06,607.59,1.37,0000 0000 0000 0000 000000
2017-11-17 02:24:31,0.08,0.12,0.00,18.53,21.68,24.70,14.24,47.69,1020.52,2054.00,3468.65,3099.21,3543.32,600.05,607.59,1.42,0000 0000 0000 0000 000000
2017-11-17 02:29:32,0.13,0.13,0.00,18.57,21.69,24.70,14.19,47.71,1020.51,2053.98,3465.82,3097.62,3541.11,599.93,607.19,1.47,0000 0000 0000 0000 000000
2017-11-17 02:34:33,0.08,0.13,0.00,18.57,21.71,24.71,14.15,47.55,1020.52,2053.96,3463.25,3096.25,3539.10,600.09,607.48,1.52,0000 0000 0000 0000 000000
2017-11-17 02:39:34,0.07,0.14,0.00,18.61,21.72,24.73,14.21,47.67,1020.52,2053.90,3461.53,3095.44,3537.68,600.14,607.47,1.57,0000 0000 0000 0000 000000
2017-11-17 02:44:35,0.08,0.14,0.00,18.62,21.74,24.77,14.13,47.72,1020.52,2053.54,3458.67,3093.76,3535.49,599.20,606.58,1.62,0000 0000 0000 0000 000000
2017-11-17 02:49:36,0.10,0.15,0.00,18.64,21.76,24.76,14.22,47.71,1020.51,2053.29,3455.92,3092.20,3533.28,600.11,607.35,1.67,0000 0000 0000 0000 000000
2017-11-17 02:54:37,0.09,0.15,0.00,18.63,21.77,24.78,14.21,47.61,1020.51,2053.14,3453.32,3090.69,3531.27,600.30,607.57,1.72,0000 0000 0000 0000 000000
2017-11-17 02:59:38,0.11,0.16,0.00,18.65,21.78,24.79,14.18,47.65,1020.51,2053.09,3450.58,3089.21,3529.15,599.71,606.96,1.77,0000 0000 0000 0000 000000
2017-11-17 03:04:40,0.12,0.16,0.00,18.65,21.79,24.82,14.19,47.69,1020.52,2053.03,3447.45,3087.43,3526.77,600.03,607.26,1.82,0000 0000 0000 0000 000000
2017-11-17 03:09:41,0.09,0.17,0.00,18.68,21.82,24.87,14.18,47.61,1020.52,2053.01,3444.82,3085.95,3524.68,600.15,607.42,1.87,0000 0000 0000 0000 000000
2017-11-17 03:14:42,0.08,0.17,0.00,18.68,21.83,24.86,14.18,47.64,1020.52,2053.00,3442.91,3084.87,3523.07,599.70,606.93,1.92,0000 0000 0000 0000 000000
2017-11-17 03:19:43,0.06,0.18,0.00,18.71,21.84,24.86,14.25,47.71,1020.52,2053.00,3441.07,3083.98,3521.61,600.01,607.07,1.97,0000 0000 0000 0000 000000
2017-11-17 03:24:45,0.05,0.18,0.00,18.70,21.86,24.88,14.14,47.63,1020.52,2053.00,3439.98,3083.22,3520.61,599.77,606.92,2.02,0000 0000 0000 0000 000000
2017-11-17 03:29:46,0.02,0.18,0.00,18.74,21.87,24.89,14.22,47.71,1020.52,2052.99,3439.05,3083.00,3519.89,599.87,606.90,2.07,0000 0000 0000 0000 000000
2017-11-17 03:34:47,0.04,0.18,0.00,18.73,21.89,24.95,14.23,47.65,1020.52,2052.98,3438.02,3082.65,3519.05,599.95,606.88,2.12,0000 0000 0000 0000 000000
2017-11-17 03:39:48,0.03,0.19,0.00,18.78,21.90,24.94,14.20,47.74,1020.52,2052.98,3436.91,3082.03,3518.21,599.94,606.88,2.17,0000 0000 0000 0000 000000
2017-11-17 03:44:50,0.03,0.19,0.00,18.74,21.92,24.93,14.22,47.61,1020.52,2052.96,3435.82,3081.79,3517.29,600.10,607.06,2.22,0000 0000 0000 0000 000000
2017-11-17 03:49:51,0.05,0.19,0.00,18.77,21.93,24.97,14.24,47.73,1020.52,2052.95,3434.67,3081.04,3516.32,600.15,607.09,2.27,0000 0000 0000 0000 000000
2017-11-17 03:54:52,0.02,0.19,0.00,18.73,21.94,24.96,14.21,47.88,1020.52,2052.71,3433.54,3080.82,3515.34,600.13,607.29,2.32,0000 0000 0000 0000 000000
2017-11-17 03:59:54,0.03,0.19,0.00,18.78,21.96,24.99,14.16,47.65,1020.53,2052.57,3432.61,3080.08,3514.56,599.64,606.68,2.37,0000 0000 0000 0000 000000
2017-11-17 04:04:55,0.02,0.19,0.00,18.79,21.97,25.03,14.17,47.73,1020.55,2052.46,3431.57,3079.97,3513.75,599.98,606.92,2.42,0000 0000 0000 0000 000000
2017-11-17 04:09:56,0.07,0.20,0.00,18.79,21.99,25.03,14.12,47.61,1020.55,2052.43,3429.66,3078.96,3512.41,599.79,606.80,2.47,0000 0000 0000 0000 000000
2017-11-17 04:14:57,0.07,0.20,0.00,18.83,22.00,25.04,14.21,47.46,1020.63,2052.09,3427.17,3077.57,3510.50,600.10,606.84,2.52,0000 0000 0000 0000 000000
2017-11-17 04:19:58,0.12,0.21,0.00,18.81,22.02,25.05,14.23,47.60,1020.64,2052.05,3424.37,3075.95,3508.34,599.98,606.95,2.57,0000 0000 0000 0000 000000
2017-11-17 04:25:00,0.09,0.21,0.00,18.85,22.03,25.09,14.16,47.61,1020.58,2052.03,3421.89,3074.59,3506.46,599.92,606.76,2.62,0000 0000 0000 0000 000000
2017-11-17 04:30:01,0.05,0.21,0.00,18.84,22.04,25.07,14.20,47.58,1020.70,2052.01,3420.44,3073.84,3505.26,599.95,606.94,2.67,0000 0000 0000 0000 000000
2017-11-17 04:35:02,0.14,0.22,0.00,18.88,22.07,25.09,14.21,47.46,1020.82,2052.02,3417.47,3072.12,3503.02,600.49,607.44,2.72,0000 0000 0000 0000 000000
2017-11-17 04:40:03,0.13,0.23,0.00,18.88,22.08,25.12,14.14,47.56,1020.76,2052.00,3414.07,3070.22,3500.44,599.68,606.64,2.77,0000 0000 0000 0000 000000
2017-11-17 04:45:04,0.06,0.23,0.00,18.92,22.09,25.14,14.09,47.46,1020.77,2052.00,3411.95,3069.05,3498.77,599.53,606.35,2.82,0000 0000 0000 0000 000000
2017-11-17 04:50:06,0.05,0.23,0.00,18.92,22.11,25.15,14.16,47.58,1020.92,2052.00,3410.79,3068.47,3497.85,600.00,606.95,2.87,0000 0000 0000 0000 000000
2017-11-17 04:55:07,0.07,0.24,0.00,18.93,22.12,25.19,14.22,47.64,1020.96,2051.99,3409.14,3067.55,3496.47,600.18,606.99,2.92,0000 0000 0000 0000 000000
2017-11-17 05:00:08,0.12,0.24,0.00,18.96,22.14,25.16,14.19,47.52,1020.97,2051.99,3406.25,3065.78,3494.25,600.26,607.20,2.97,0000 0000 0000 0000 000000
2017-11-17 05:05:09,0.07,0.25,0.00,18.96,22.15,25.19,14.17,47.56,1020.94,2051.98,3404.34,3064.75,3492.73,600.15,607.01,3.02,0000 0000 0000 0000 000000
2017-11-17 05:10:10,0.13,0.25,0.00,18.96,22.17,25.18,14.20,47.83,1020.92,2051.98,3401.59,3063.09,3490.59,599.79,606.66,3.08,0000 0000 0000 0000 000000
2017-11-17 05:15:12,0.10,0.26,0.00,18.97,22.18,25.20,14.19,47.72,1020.93,2051.98,3398.93,3061.47,3488.53,599.72,606.53,3.13,0000 0000 0000 0000 000000
2017-11-17 05:20:13,0.08,0.26,0.00,18.99,22.19,25.23,14.25,47.58,1020.99,2051.96,3396.94,3060.37,3487.00,600.43,607.39,3.18,0000 0000 0000 0000 000000
2017-11-17 05:25:15,0.11,0.27,0.00,18.99,22.21,25.23,14.25,47.72,1021.00,2051.80,3393.74,3058.39,3484.51,600.46,607.30,3.23,0000 0000 0000 0000 000000
2017-11-17 05:30:16,0.01,0.27,0.00,18.99,22.22,25.27,14.25,47.71,1021.01,2051.38,3392.29,3057.64,3483.24,599.99,606.79,3.28,0000 0000 0000 0000 000000
2017-11-17 05:35:17,0.03,0.27,0.00,19.01,22.24,25.27,14.13,47.69,1021.01,2051.15,3391.33,3057.00,3482.39,600.08,606.86,3.33,0000 0000 0000 0000 000000
2017-11-17 05:40:18,0.08,0.28,0.00,18.99,22.25,25.32,14.22,47.73,1021.01,2051.05,3389.43,3055.89,3480.88,599.94,606.78,3.38,0000 0000 0000 0000 000000
2017-11-17 05:45:19,0.11,0.28,0.00,19.01,22.27,25.33,14.15,47.76,1021.01,2051.04,3386.77,3054.28,3478.81,599.93,606.76,3.43,0000 0000 0000 0000 000000
2017-11-17 05:50:21,0.10,0.29,0.00,19.01,22.27,25.34,14.21,47.80,1021.02,2051.01,3384.49,3052.86,3477.09,599.94,606.74,3.48,0000 0000 0000 0000 000000
2017-11-17 05:55:22,0.13,0.29,0.00,19.04,22.29,25.37,14.15,47.76,1021.09,2051.02,3381.34,3050.97,3474.74,600.09,606.88,3.53,0000 0000 0000 0000 000000
2017-11-17 06:00:23,0.07,0.30,0.00,19.05,22.30,25.35,14.19,47.82,1021.07,2051.00,3379.26,3049.73,3473.17,599.75,606.46,3.58,0000 0000 0000 0000 000000
2017-11-17 06:05:25,0.04,0.30,0.00,19.07,22.32,25.33,14.24,47.88,1021.12,2051.00,3377.87,3049.02,3472.07,600.09,606.82,3.63,0000 0000 0000 0000 000000
2017-11-17 06:10:26,0.05,0.30,0.00,19.09,22.32,25.37,14.24,47.86,1021.22,2051.00,3376.85,3048.54,3471.28,600.35,607.11,3.68,0000 0000 0000 0000 000000
2017-11-17 06:15:27,0.02,0.31,0.00,19.09,22.34,25.41,14.22,47.73,1021.40,2051.00,3375.97,3048.01,3470.49,599.96,606.89,3.73,0000 0000 0000 0000 000000
2017-11-17 06:20:28,0.04,0.31,0.00,19.14,22.35,25.38,14.16,47.80,1021.34,2050.99,3374.97,3047.48,3469.71,599.72,606.68,3.78,0000 0000 0000 0000 000000
2017-11-17 06:25:30,0.02,0.31,0.00,19.11,22.37,25.40,14.19,47.78,1021.47,2050.98,3374.05,3047.01,3468.99,599.92,606.83,3.83,0000 0000 0000 0000 000000
2017-11-17 06:30:31,0.04,0.31,0.00,19.11,22.37,25.42,14.17,47.66,1021.49,2050.98,3373.16,3046.72,3468.21,599.75,606.68,3.88,0000 0000 0000 0000 000000
2017-11-17 06:35:32,0.04,0.31,0.00,19.12,22.39,25.42,14.18,47.64,1021.50,2050.96,3372.32,3046.03,3467.53,600.20,607.04,3.93,0000 0000 0000 0000 000000
2017-11-17 06:40:33,0.04,0.31,0.00,19.15,22.39,25.47,14.21,47.81,1021.50,2050.97,3371.25,3045.61,3466.74,599.91,606.70,3.98,0000 0000 0000 0000 000000
2017-11-17 06:45:35,0.03,0.32,0.00,19.17,22.41,25.45,14.21,47.55,1021.50,2050.95,3370.32,3045.01,3466.01,600.15,606.89,4.03,0000 0000 0000 0000 000000
2017-11-17 06:50:36,0.02,0.32,0.00,19.16,22.42,25.47,14.20,47.67,1021.50,2050.89,3369.65,3044.84,3465.26,600.07,606.85,4.08,0000 0000 0000 0000 000000
2017-11-17 06:55:37,0.01,0.32,0.00,19.18,22.43,25.49,14.21,47.67,1021.50,2050.70,3368.99,3044.10,3464.89,600.26,606.90,4.13,0000 0000 0000 0000 000000
2017-11-17 07:00:38,0.03,0.32,0.00,19.17,22.44,25.50,14.21,47.52,1021.50,2050.61,3368.24,3043.99,3464.10,599.94,606.93,4.18,0000 0000 0000 0000 000000
2017-11-17 07:05:40,0.02,0.32,0.00,19.18,22.46,25.49,14.22,47.52,1021.50,2050.31,3367.26,3043.44,3463.48,600.24,607.02,4.23,0000 0000 0000 0000 000000
2017-11-17 07:10:41,0.06,0.32,0.00,19.18,22.47,25.52,14.22,47.59,1021.50,2050.15,3365.43,3042.31,3462.00,600.05,606.69,4.28,0000 0000 0000 0000 000000
2017-11-17 07:15:42,0.09,0.33,0.00,19.16,22.48,25.56,14.13,47.61,1021.51,2050.04,3363.26,3040.82,3460.31,599.61,606.36,4.33,0000 0000 0000 0000 000000
2017-11-17 07:20:44,0.07,0.33,0.00,19.18,22.49,25.60,14.19,47.68,1021.50,2050.04,3361.35,3039.75,3458.73,599.82,606.56,4.38,0000 0000 0000 0000 000000
2017-11-17 07:25:45,0.04,0.34,0.00,19.19,22.49,25.61,14.19,47.58,1021.51,2050.01,3360.12,3038.89,3457.72,600.49,607.24,4.43,0000 0000 0000 0000 000000
2017-11-17 07:30:47,0.04,0.34,0.00,19.21,22.51,25.64,14.24,47.64,1021.52,2050.00,3359.10,3038.07,3456.88,600.08,606.80,4.48,0000 0000 0000 0000 000000
2017-11-17 07:35:48,0.04,0.34,0.00,19.22,22.52,25.66,14.18,47.73,1021.52,2050.00,3358.04,3037.57,3456.05,600.16,606.80,4.53,0000 0000 0000 0000 000000
2017-11-17 07:40:49,0.03,0.34,0.00,19.22,22.53,25.62,14.19,47.64,1021.53,2050.00,3356.94,3036.99,3455.25,599.97,606.63,4.58,0000 0000 0000 0000 000000
2017-11-17 07:45:50,0.08,0.34,0.00,19.24,22.54,25.62,14.14,47.61,1021.53,2050.00,3355.45,3036.07,3454.16,599.75,606.30,4.63,0000 0000 0000 0000 000000
2017-11-17 07:50:51,0.12,0.35,0.00,19.25,22.54,25.60,14.19,47.70,1021.56,2050.00,3352.71,3034.38,3452.14,599.86,606.51,4.68,0000 0000 0000 0000 000000
2017-11-17 07:55:52,0.09,0.36,0.00,19.28,22.56,25.65,14.16,47.67,1021.70,2050.00,3350.66,3033.05,3450.56,600.12,606.81,4.73,0000 0000 0000 0000 000000
2017-11-17 08:00:54,0.12,0.36,0.00,19.23,22.57,25.65,14.21,47.70,1021.83,2050.00,3348.04,3031.44,3448.58,599.81,606.66,4.78,0000 0000 0000 0000 000000
2017-11-17 08:05:55,0.12,0.37,0.00,19.26,22.58,25.68,14.19,47.65,1021.79,2049.99,3345.17,3029.66,3446.46,599.88,606.60,4.83,0000 0000 0000 0000 000000
2017-11-17 08:10:56,0.10,0.37,0.00,19.28,22.59,25.71,14.10,47.70,1021.74,2049.99,3342.51,3027.94,3444.51,599.65,606.28,4.88,0000 0000 0000 0000 000000
2017-11-17 08:15:57,0.06,0.38,0.00,19.29,22.60,25.70,14.23,47.76,1021.75,2049.98,3340.72,3026.97,3443.20,600.00,606.56,4.93,0000 0000 0000 0000 000000
2017-11-17 08:20:58,0.11,0.38,0.00,19.31,22.62,25.66,14.19,47.77,1021.66,2049.99,3338.60,3025.60,3441.52,600.10,606.47,4.98,0000 0000 0000 0000 000000
2017-11-17 08:26:00,0.12,0.39,0.00,19.33,22.62,25.68,14.21,47.80,1021.74,2049.97,3335.70,3023.75,3439.40,599.89,606.45,5.03,0000 0000 0000 0000 000000
2017-11-17 08:31:01,0.12,0.40,0.00,19.35,22.63,25.72,14.17,47.78,1021.84,2049.94,3332.90,3021.97,3437.19,599.74,606.30,5.08,0000 0000 0000 0000 000000
2017-11-17 08:36:02,0.12,0.40,0.00,19.31,22.64,25.71,14.14,47.85,1021.89,2049.94,3329.98,3020.12,3435.07,599.99,606.64,5.13,0000 0000 0000 0000 000000
2017-11-17 08:41:03,0.08,0.41,0.00,19.31,22.64,25.81,14.20,47.86,1021.93,2049.78,3327.55,3018.61,3433.26,600.06,606.75,5.18,0000 0000 0000 0000 000000
2017-11-17 08:46:05,0.09,0.41,0.00,19.33,22.66,25.75,14.16,47.76,1021.96,2049.61,3325.10,3017.11,3431.32,599.81,606.50,5.23,0000 0000 0000 0000 000000
2017-11-17 08:51:06,0.06,0.41,0.00,19.33,22.67,25.77,14.24,47.79,1021.97,2049.43,3323.28,3015.91,3429.79,600.41,606.92,5.28,0000 0000 0000 0000 000000
2017-11-17 08:56:07,0.02,0.42,0.00,19.35,22.67,25.77,14.24,47.84,1021.94,2049.21,3322.08,3015.05,3428.93,600.26,606.86,5.33,0000 0000 0000 0000 000000
2017-11-17 09:01:08,0.02,0.42,0.00,19.34,22.69,25.82,14.20,47.82,1021.92,2049.09,3321.30,3014.93,3428.10,599.96,606.59,5.38,0000 0000 0000 0000 000000
2017-11-17 09:06:10,0.05,0.42,0.00,19.35,22.69,25.83,14.21,47.88,1021.94,2049.05,3320.50,3014.17,3427.52,600.17,606.73,5.44,0000 0000 0000 0000 000000
2017-11-17 09:11:11,0.01,0.42,0.00,19.38,22.69,25.87,14.16,47.96,1021.98,2049.06,3319.82,3013.98,3426.96,599.76,606.38,5.49,0000 0000 0000 0000 000000
2017-11-17 09:16:12,0.04,0.42,0.00,19.37,22.71,25.84,14.23,48.08,1021.98,2049.04,3319.01,3013.50,3426.17,600.06,606.68,5.54,0000 0000 0000 0000 000000
2017-11-17 09:21:14,0.02,0.42,0.00,19.41,22.72,25.85,14.19,48.01,1021.98,2049.02,3318.19,3013.01,3425.79,600.14,606.75,5.59,0000 0000 0000 0000 000000
2017-11-17 09:26:15,0.04,0.43,0.00,19.40,22.72,25.82,14.21,47.93,1021.98,2049.01,3317.40,3012.65,3425.02,599.87,606.46,5.64,0000 0000 0000 0000 000000
2017-11-17 09:31:16,0.08,0.43,0.00,19.40,22.72,25.89,14.30,47.94,1021.97,2049.02,3315.77,3011.58,3423.66,600.58,607.18,5.69,0000 0000 0000 0000 000000
2017-11-17 09:36:17,0.12,0.44,0.00,19.39,22.74,25.90,14.24,47.93,1021.97,2049.01,3313.00,3009.89,3421.57,600.25,606.65,5.74,0000 0000 0000 0000 000000
2017-11-17 09:41:19,0.12,0.44,0.00,19.42,22.74,25.90,14.18,47.82,1021.98,2049.00,3310.02,3008.04,3419.34,600.31,606.80,5.79,0000 0000 0000 0000 000000
2017-11-17 09:46:20,0.11,0.45,0.00,19.42,22.74,25.89,14.15,47.85,1021.99,2049.00,3307.27,3006.54,3417.35,599.72,606.32,5.84,0000 0000 0000 0000 000000
2017-11-17 09:51:21,0.06,0.45,0.00,19.41,22.75,25.88,14.14,47.84,1021.99,2049.00,3305.41,3005.36,3415.95,599.60,606.21,5.89,0000 0000 0000 0000 000000
2017-11-17 09:56:22,0.03,0.45,0.00,19.42,22.77,25.93,14.20,47.83,1021.99,2049.00,3304.41,3004.98,3415.08,599.87,606.39,5.94,0000 0000 0000 0000 000000
2017-11-17 10:01:24,0.05,0.46,0.00,19.38,22.77,25.88,14.20,47.78,1021.99,2049.00,3303.53,3004.25,3414.43,600.32,606.79,5.99,0000 0000 0000 0000 000000
2017-11-17 10:06:25,0.08,0.46,0.00,19.43,22.77,25.93,14.15,47.76,1021.99,2049.00,3301.81,3003.29,3413.06,599.67,606.16,6.04,0000 0000 0000 0000 000000
2017-11-17 10:11:26,0.08,0.46,0.00,19.43,22.79,25.98,14.21,47.74,1021.99,2049.00,3299.88,3002.07,3411.62,600.06,606.55,6.09,0000 0000 0000 0000 000000
2017-11-17 10:16:27,0.06,0.47,0.00,19.41,22.79,25.92,14.20,47.78,1021.99,2049.00,3298.24,3001.05,3410.40,599.71,606.42,6.14,0000 0000 0000 0000 000000
2017-11-17 10:21:29,0.06,0.47,0.00,19.44,22.79,25.97,14.18,47.73,1021.99,2049.00,3296.73,3000.09,3409.19,600.23,606.80,6.19,0000 0000 0000 0000 000000
2017-11-17 10:26:30,0.03,0.47,0.00,19.43,22.80,25.99,14.24,47.87,1022.00,2048.98,3295.89,2999.75,3408.52,600.30,606.82,6.24,0000 0000 0000 0000 000000
2017-11-17 10:31:31,0.06,0.48,0.00,19.45,22.82,25.97,14.18,47.88,1022.01,2048.98,3294.62,2998.95,3407.61,599.85,606.32,6.29,0000 0000 0000 0000 000000
2017-11-17 10:36:33,0.06,0.48,0.00,19.43,22.82,25.91,14.22,47.78,1022.00,2048.98,3293.19,2998.06,3406.48,599.88,606.43,6.34,0000 0000 0000 0000 000000
2017-11-17 10:41:34,0.07,0.48,0.00,19.46,22.82,26.00,14.19,47.73,1022.00,2048.96,3291.45,2997.05,3405.23,599.80,606.19,6.39,0000 0000 0000 0000 000000
2017-11-17 10:46:35,0.10,0.49,0.00,19.49,22.82,26.00,14.17,47.83,1022.03,2048.97,3289.57,2995.72,3403.72,600.24,606.66,6.44,0000 0000 0000 0000 000000
2017-11-17 10:51:36,0.08,0.49,0.00,19.49,22.84,26.03,14.22,47.88,1022.14,2048.94,3287.48,2994.47,3402.25,600.00,606.40,6.49,0000 0000 0000 0000 000000
2017-11-17 10:56:38,0.10,0.50,0.00,19.50,22.84,25.98,14.17,47.78,1022.29,2048.81,3285.11,2992.86,3400.38,600.22,606.61,6.54,0000 0000 0000 0000 000000
2017-11-17 11:01:39,0.12,0.50,0.00,19.49,22.84,25.99,14.15,47.88,1022.35,2048.80,3282.33,2991.13,3398.30,599.78,606.25,6.59,0000 0000 0000 0000 000000
2017-11-17 11:06:40,0.12,0.51,0.00,19.49,22.85,26.01,14.18,47.92,1022.41,2048.86,3279.72,2989.49,3396.39,600.05,606.68,6.64,0000 0000 0000 0000 000000
2017-11-17 11:11:41,0.10,0.51,0.00,19.45,22.87,26.03,14.18,47.73,1022.45,2048.60,3276.77,2987.61,3394.19,599.86,606.58,6.69,0000 0000 0000 0000 000000
2017-11-17 11:16:42,0.13,0.52,0.00,19.47,22.87,26.03,14.24,47.85,1022.43,2048.45,3273.71,2985.68,3391.97,599.85,606.55,6.74,0000 0000 0000 0000 000000
2017-11-17 11:21:44,0.12,0.53,0.00,19.48,22.87,26.13,14.21,47.78,1022.47,2048.60,3270.96,2983.93,3390.09,599.98,606.67,6.79,0000 0000 0000 0000 000000
2017-11-17 11:26:45,0.03,0.53,0.00,19.49,22.87,26.13,14.13,47.69,1022.46,2048.31,3269.29,2982.93,3388.83,599.79,606.43,6.84,0000 0000 0000 0000 000000
2017-11-17 11:31:46,0.09,0.53,0.00,19.49,22.89,26.10,14.18,47.79,1022.42,2048.30,3267.66,2981.89,3387.61,599.60,606.31,6.89,0000 0000 0000 0000 000000
2017-11-17 11:36:48,0.10,0.54,0.00,19.50,22.89,26.08,14.19,47.74,1022.36,2048.17,3265.28,2980.38,3385.88,600.03,606.57,6.94,0000 0000 0000 0000 000000
2017-11-17 11:41:49,0.11,0.54,0.00,19.53,22.89,26.11,14.20,47.71,1022.46,2048.11,3262.69,2978.65,3383.81,600.00,606.46,6.99,0000 0000 0000 0000 000000
2017-11-17 11:46:50,0.08,0.55,0.00,19.51,22.89,26.05,14.18,47.68,1022.48,2048.04,3260.59,2977.22,3382.09,600.30,606.92,7.04,0000 0000 0000 0000 000000
2017-11-17 11:51:51,0.07,0.55,0.00,19.53,22.90,26.07,14.18,47.77,1022.47,2048.05,3258.97,2976.19,3380.91,599.85,606.43,7.09,0000 0000 0000 0000 000000
2017-11-17 11:56:53,0.05,0.56,0.00,19.52,22.92,26.07,14.15,47.77,1022.48,2048.03,3257.75,2975.55,3380.03,599.77,606.36,7.14,0000 0000 0000 0000 000000
2017-11-17 12:01:54,0.02,0.56,0.00,19.52,22.92,26.06,14.15,47.88,1022.44,2048.02,3257.01,2975.01,3379.30,599.88,606.40,7.19,0000 0000 0000 0000 000000
2017-11-17 12:06:55,0.02,0.56,0.00,19.51,22.92,26.10,14.16,47.89,1022.43,2048.02,3256.42,2974.78,3378.97,599.68,606.35,7.24,0000 0000 0000 0000 000000
2017-11-17 12:11:57,0.03,0.56,0.00,19.55,22.92,26.13,14.22,47.85,1022.46,2048.02,3255.84,2974.08,3378.17,599.98,606.60,7.29,0000 0000 0000 0000 000000
2017-11-17 12:16:58,0.02,0.56,0.00,19.61,22.94,26.13,14.13,47.68,1022.47,2048.03,3254.97,2973.93,3377.80,600.00,606.47,7.34,0000 0000 0000 0000 000000
2017-11-17 12:21:59,0.06,0.57,0.00,19.55,22.94,26.10,14.25,47.87,1022.45,2048.01,3253.73,2973.08,3376.76,600.25,606.76,7.39,0000 0000 0000 0000 000000
2017-11-17 12:27:00,0.04,0.57,0.00,19.57,22.94,26.15,14.24,47.87,1022.44,2048.00,3252.79,2972.54,3375.91,600.26,606.71,7.44,0000 0000 0000 0000 000000
2017-11-17 12:32:02,0.10,0.57,0.00,19.56,22.95,26.12,14.19,47.82,1022.48,2048.00,3250.81,2971.19,3374.50,599.80,606.35,7.49,0000 0000 0000 0000 000000
2017-11-17 12:37:03,0.11,0.58,0.00,19.57,22.96,26.14,14.26,47.83,1022.46,2048.00,3248.33,2969.59,3372.62,600.30,606.74,7.54,0000 0000 0000 0000 000000
2017-11-17 12:42:04,0.10,0.58,0.00,19.56,22.97,26.17,14.15,47.78,1022.46,2048.00,3245.96,2968.14,3370.87,599.87,606.35,7.59,0000 0000 0000 0000 000000
2017-11-17 12:47:05,0.11,0.59,0.00,19.60,22.97,26.15,14.11,47.63,1022.48,2048.00,3243.50,2966.58,3369.03,599.79,606.13,7.64,0000 0000 0000 0000 000000
2017-11-17 12:52:07,0.11,0.60,0.00,19.58,22.97,26.15,14.19,47.72,1022.48,2048.00,3241.00,2964.94,3367.19,600.08,606.51,7.69,0000 0000 0000 0000 000000
2017-11-17 12:57:08,0.07,0.60,0.00,19.62,22.99,26.08,14.21,47.83,1022.48,2047.99,3239.14,2963.73,3365.69,599.96,606.45,7.74,0000 0000 0000 0000 000000
2017-11-17 13:02:09,0.09,0.60,0.00,19.59,22.99,26.13,14.19,47.80,1022.48,2047.99,3237.06,2962.45,3364.17,600.10,606.54,7.79,0000 0000 0000 0000 000000